Location: 81360 Arifat, France
(43.7204°N, 2.3408°E)
Time: 03:53:56
(UTC+01:00)

ACS3 Solar Sail - Pass Details

Date: 17 October 2025
Orbit: 909 x 993 km, 97.3° (Epoch: 13 November)

Event Time Altitude Azimuth Distance (km) Brightness Sun altitude
Rises 04:02:18 0° 30° (NNE) 3,550 5.4 -43.2°
Reaches altitude 10° 04:06:03 10° 55° (NE) 2,609 4.7 -42.6°
Maximum altitude 04:09:02 14° 86° (E) 2,321 4.2 -42.2°
Enters shadow 04:11:23 11° 111° (ESE) 2,509 4.2 -41.9°
